Showing default

GAOFEN 9 03, 45794

Orbit data source: Space-Track

GAOFEN 9 03, 45794 is a payload satellite owned by GGKGJ (CN) in SSO that was launched on Wed, 17 Jun 2020 UTC via a CHANG ZHENG 2D launch vehicle from the Jiuquan Satellite Launch Center, China (JSC). Payload-class satellites include a variety of spacecraft equipped with specific instruments for various scientific and technological missions. These include communications satellites like Starlink; space stations such as the ISS; scientific satellites like the Hubble; Earth observation satellites from companies like Planet Labs, Umbra, and HawkEye 360; GPS; miniature CubeSats for education and research; and military/defense satellites.

Loading next visibility...
Identifier
45794, 2020-039A
Orbit
SSO
Country
Flag of CNCN / PRC
Related business
Manufacturer
DFH
Mission
Operational Defense Imaging
Bus & Motor
CAST-3000, AOCS
Mass
~1,700 kg wet, ~1,500 kg dry
Launch date (UTC)
2020-06-17 (6 years ago)
Launch vehicle
CHANG ZHENG 2D
Launch site
Jiuquan Satellite Launch Center, China (JSC)
Object type
Payload
Rocket body
Debris
Shape & HBR
Box + 2 Pan, Unknown HBR
Radar Cross Section
4.991 m², Large (>1 m²)

Expand to show TLE details & history
Last TLE update: 22 hours ago

TLE from 22 hours ago
0 GAOFEN 9 03
1 45794U 20039A   26172.53301110  .00005904  00000-0  19026-3 0  9994
2 45794  97.5397 306.4984 0012701  70.3018 289.9592 15.32506784334426
Epoch: 2026-06-21T12:47Z
TLE epoch observation values (Epoch: 2026-06-21T12:47:32.159Z)
Latitude
-0.00005°
Longitude
-155.11751°
Altitude
468.48 km
Speed
7.634 km/s
True Right ascension
20h 25m 59s
True Declination
0° 00' 00"
Sunlit
Object was in full shadow at epoch
Visualization orbit readout
Latitude
Unknown
Longitude
Unknown
Altitude
Unknown
Speed
Unknown
Apparent Right ascension
Unknown
Apparent Declination
Unknown
Sunlit
N/A
Visualization observer readout
Local Sidereal Time
21:40:30
Azimuth
Unknown
Elevation
Unknown
Doppler factor
Unknown
Orbital elements
Apogee altitude
473.983 km
Perigee altitude
456.599 km
Semi-major axis
6,843.428 km
Eccentricity
0.00127
Inclination
97.5397°
RAAN
306.4984°
Arg. of periapsis
70.3018°
True anomaly
289.82233°
Mean anomaly
289.9592°
Eccentric anomaly
289.89077°
Mean motion
3.83383 °/min
Orbital period
93.9 mins
BSTAR
0.00019026
Loading maneuver chart data...
Computing Atmospheric mass density...
Loading historical data...
Loading historical data...
Loading historical data...
Loading historical data...
Loading historical data...
Loading historical data...
Loading historical data...

Documentation

Showing up to 5 results
|